Location: Unspecified
(0.0000°N, 0.0000°E)
Time: 17:13:51
(UTC+02:00)

Ariane H10 - Visible Passes

Search period start: 24 May 2015 00:00
Search period end: 03 June 2015 00:00
Orbit: 482 x 34817 km, 7.2° (Epoch: 22 May)

Date Brightness Start Highest point End Pass type
(mag) Time Alt. Az. Time Alt. Az. Time Alt. Az.
24 May 8.2 18:20:31 10° W 18:57:09 86° N 04:03:45 10° E visible
25 May 6.7 14:45:22 10° WSW 14:51:57 73° SSE 00:17:47 10° E visible
26 May 5.2 22:18:15 10° W 07:38:00 70° SSW 07:43:01 10° ESE visible
27 May 8.1 18:25:42 10° W 19:08:46 85° N 04:08:48 10° E visible
28 May 6.8 14:50:09 10° WSW 14:57:15 76° SSE 00:24:08 10° E visible
29 May 5.0 22:25:52 10° W 07:43:02 66° SSW 07:47:43 10° ESE visible
30 May 8.0 18:30:49 10° W 19:22:45 84° N 04:13:43 10° E visible
31 May 6.9 14:54:51 10° WSW 15:02:30 78° SSE 00:30:13 10° E visible
01 Jun 4.8 22:33:49 10° W 07:47:55 62° SSW 07:52:19 10° ESE visible
